Tracking 18630 objects as of 26-May-2017
HD Live streaming from Space Station
objects crossing your sky now

EXPRESS 3A

Track EXPRESS 3A now!
EXPRESS 3A is classified as:


NORAD ID: 26378
Int'l Code: 2000-031A
Perigee: 36,199.7 km
Apogee: 36,239.7 km
Inclination: 7.1 °
Period: 1,457.9 minutes
Semi major axis: 42590 km
RCS: 37.9323 m2 (large)
Launch date: June 24, 2000
Source: Commonwealth of Independent States (former USSR) (CIS)
Launch site: TYURATAM MISSILE AND SPACE COMPLEX (TTMTR)

Data transmission, TV and radio broadcasting, communications, Internet, video-conference, and others; digital format throughout Russia.
Your satellite tracking list
Your tracking list is empty





NASA's NSSDC Master Catalog

Two Line Element Set (TLE):
1 26378U 00031A   17145.51438240 -.00000243 +00000-0 +00000-0 0  9995
2 26378 007.0542 052.8061 0004690 170.0319 013.3203 00.98771266061531
Source of the keplerian elements: AFSPC